Regional Weather Roundup
Issued by NWS Newport/Morehead, NC

Current Version | Previous Version | Graphics & Text | Print | Product List | Glossary Off
Versions: 1 2 3 4 5 6 7 8 9 10 11 12 13 14 15 16 17 18 19 20 21 22 23 24 25 26 27 28 29 30 31 32 33 34 35 36 37 38 39 40 41 42 43 44 45 46 47 48 49 50

000
ASUS42 KMHX 240913
RWRMHX
WEATHER ROUNDUP FOR EASTERN NORTH CAROLINA
NATIONAL WEATHER SERVICE NEWPORT/MOREHEAD CITY NC
500 AM EDT SUN SEP 24 2017

NOTE: "FAIR" INDICATES FEW OR NO CLOUDS BELOW 12,000 FEET
WITH NO SIGNIFICANT WEATHER AND/OR OBSTRUCTIONS TO VISIBILITY

NCZ015>017-031-032-045>047-102-103-241000-
NORTH COAST

CITY           SKY/WX    TMP DP  RH WIND       PRES   REMARKS
EDENTON        MOCLDY    66  64  93 CALM      30.04S
ELIZABETH CITY PTCLDY    67  67 100 CALM      30.04R
KITTY HAWK     CLOUDY    69  65  86 CALM      30.02R
MANTEO         CLOUDY    69  66  92 E5        30.03S

$$

NCZ045>047-081-094-103-104-241000-
CENTRAL COAST

CITY           SKY/WX    TMP DP  RH WIND       PRES   REMARKS
FRISCO         PTCLDY    72  69  90 NE6       30.00S

$$

NCZ095-097-098-100-101-241000-
SOUTHERN COAST

CITY           SKY/WX    TMP DP  RH WIND       PRES   REMARKS
BEAUFORT       PTCLDY    72  71  97 NE7       30.00R
CEDAR ISLAND   NOT AVBL
JACKSONVILLE   PTCLDY    70  69  97 N6        30.01R
PINEY ISLAND     N/A    N/A N/A N/A NE14      30.00S
WILMINGTON     PTCLDY    69  68  96 NE6       30.00S


$$

NCZ011>013-027>030-043-044-078>080-089-090>093-098-241000-
COASTAL PLAIN

CITY           SKY/WX    TMP DP  RH WIND       PRES   REMARKS
AHOSKIE        PTCLDY    63  63 100 CALM      30.05S
CLINTON        PTCLDY    68  67  99 CALM      30.03S
ELIZABETHTOWN  NOT AVBL
GOLDSBORO      PTCLDY    67  67 100 CALM      30.02S
GREENVILLE     FOG       64  64 100 CALM      30.05F VSB 1/2
HAVELOCK       MOCLDY    73  70  90 N8        30.02R
KENANSVILLE    PTCLDY    66  64  94 CALM      30.03F FOG
KINSTON        MOCLDY    66  65  96 CALM      30.04S
NEW BERN       CLEAR     70  69  97 NE7       30.03S
RICHLANDS      PTCLDY    67  66  97 N3        30.02S
ROCKY MOUNT    CLEAR     65  65 100 N3        30.05F FOG
WASHINGTON       N/A     65  65  97 CALM      30.04S FOG
WHITEVILLE     MOCLDY    69  67  95 CALM      30.01S

$$

AMZ130-135-150-152-154-156-158-170-250-252-270-ANZ085-086-088-633-658-670-241000-
MARINE OBSERVATIONS

STATION/POSITION TIME  TEMP    WIND        PRES    WAVE   SWELL
                       AIR SEA DIR/SP/G            HT/PER HT/PER
                 (UTC) (F)     (DEG/KT/KT) (MB)    (FT/S) (FT/S)
CHESAPEAKE LIGHT NOT AVBL
64 E VA BEACH    0850   70 69  350/  8/ 10 1016.9    8/15   8/15
DUCK             0842   73 76   80/  7/  9 1016.6
2 E DUCK         0830      76                N/A     5/14   3/14
OREGON INLET     0842   72 77   40/  7/  9 1016.4
13E OREGON INLT  0848      74                N/A     6/13   7/13
HATTERAS CG      0842   72 78   50/  8/ 12 1015.8
DIAMOND BUOY     0850   73 74   30/ 16/ 19 1015.1    7/14   7/14
CAPE LOOKOUT     0900   74      40/ 15/ 18 1015.3
BEAUFORT LAB     0842   73 77   40/  5/  9 1015.1
30 SE NEW RVR IN 0808   76      60/ 17/ 23 1014.8
30 SE NEW RVR IN NOT AVBL
27 SE WRIGHTSVLE 0808   77 80   80/ 17/ 23 1014.6
5 SE WRIGHTSVLE  0808   76 79   60/ 14/ 21 1015.3
225 S CAPE HAT   0850   78 79   40/ 23/ 27 1009.8   13/11  11/11
41 SE CHARLESTON 0850   80 82   50/ 16/ 19 1013.1   10/14   8/14

$$




USA.gov is the U.S. government's official web portal to all federal, state and local government web resources and services.